www.pogodaiklimat.ru

Погода и климат >> Архив погоды >> Таиланд >> Дон Муанг


ПОГОДА в Дон Муанг

  • Прогноз погоды в Дон Муанг
  • Монитор погоды в Дон Муанг

АРХИВ ПОГОДЫ в Дон Муанг

Время (UTC), дата Ветер
(напр.,м/с)
 
Видим.   Явления Облачность Т
(С)
Тd
(С)
f
(%)
Тe
(С)
Тes
(С)
Комфортность P
(гПа)
Po
(гПа)
Тmin
(С)
Tmax
(С)
R
(мм)
R24
(мм)
S
(см)
09 20.05 ЮВ 10 9000 м мгла 9/5 600 м
[Cb cap Ac trans Cs]
+35.0 +15.0 30 +36 +37 очень
жарко
1004.8 1003.4
12 20.05 Ю 8 9000 м слаб. ливневой дождь, в посл. час гроза 9/1 600 м
[Cu Sc Ac trans Cs]
+32.2 +24.2 63 +44 +44 опасность
перегрева
1006.0 1004.6 +37.0 0.0
15 20.05 Ю 10 9000 м дымка 9/1 600 м
[Cu hum Ac trans Cs]
+31.2 +26.5 76 +48 +48 опасность
перегрева
1008.1 1006.7
18 20.05 Ю 6 9000 м дымка 8/1 600 м
[Cu hum Ac trans Cs]
+30.4 +26.2 78 +46 +46 опасность
перегрева
1008.1 1006.7
21 20.05 СВ 1 9000 м дымка 5/1 600 м
[Cu hum Ac trans Cs]
+28.8 +25.8 84 +43 +43 опасность
перегрева
1007.4 1006.0
00 21.05 штиль 0 9000 м дымка 5/1 600 м
[Cu hum Ac trans Cs]
+29.2 +26.7 86 +45 +46 опасность
перегрева
1008.7 1007.3 +27.6 0.0
03 21.05 З 8 10 км 5/1 600 м
[Cu hum Cs]
+33.6 +24.8 60 +47 +49 опасность
перегрева
1009.1 1007.7
06 21.05 ЮЗ 7 10 км 6/3 600 м
[Cu Sc Cs]
+36.6 +24.1 49 +48 +52 опасность
перегрева
1007.1 1005.7
09 21.05 штиль 0 10 км в посл. час гроза 8/4 600 м
[Cu Sc Ac trans Cs]
+31.2 +26.0 74 +47 +51 опасность
перегрева
1004.8 1003.4 5
12 21.05 Ю 8 10 км {гроза} 8/3 600 м
[Cu Sc Ac trans Cs]
+32.4 +25.5 67 +47 +47 опасность
перегрева
1006.1 1004.7 +37.1
15 21.05 ЮЗ 8 10 км 6/1 600 м
[Cu med, cong Ac trans Cs]
+30.3 +26.2 79 +46 +46 опасность
перегрева
1008.5 1007.1
18 21.05 З 8 10 км зарница 8/1 600 м
[Cb cap Ac trans Cs]
+30.1 +24.1 70 +42 +42 опасность
перегрева
1009.4 1008.0
21 21.05 СЗ 7 10 км 8/3 600 м
[Cu Sc Ac trans Cs]
+30.1 +23.6 68 +41 +41 опасность
перегрева
1008.7 1007.3
00 22.05 С 5 9000 м слаб. дождь 9/3 600 м
[Cu Sc Ac As Cs]
+26.1 +23.9 88 +36 +36 очень
душно
1009.3 1007.9 +26.0 0.0
03 22.05 СЗ 6 10 км 9/3 600 м
[Cu Sc Ac As Cs]
+28.2 +24.6 81 +40 +42 очень
душно
1009.4 1008.0
06 22.05 СВ 5 10 км 8/3 600 м
[Cu hum Ac und Cs]
+32.6 +24.0 61 +45 +50 опасность
перегрева
1008.5 1007.1
09 22.05 СВ 4 10 км 9/3 600 м
[Cu Sc As op Cs]
+33.3 +24.2 59 +45 +48 опасность
перегрева
1005.3 1003.9
12 22.05 З 13 8000 м гроза, ливневой дождь 9/3 600 м
[Cb cap Ac As Cs]
+26.6 +23.7 84 +36 +36 очень
душно
1008.7 1007.2 +35.0 4
15 22.05 ЮЗ 6 9000 м в посл. час дождь {гроза} 9/3 600 м
[Cu Sc Ac As Cs]
+27.2 +23.7 81 +37 +37 очень
душно
1010.2 1008.8 6
18 22.05 штиль 0 9000 м дымка {гроза, дождь} 8/3 600 м
[Cu hum Ac und Cs]
+26.5 +25.5 94 +39 +39 очень
душно
1009.6 1008.2 10
21 22.05 ЮВ 3 9000 м дымка 6/3 600 м
[Cu hum Ac lent Cs]
+26.3 +25.6 96 +39 +39 очень
душно
1008.3 1006.9
00 23.05 ЮВ 2 8000 м дымка 6/1 600 м
[Cu hum Ac lent Cs]
+26.8 +25.4 92 +39 +40 очень
душно
1009.7 1008.3 +24.5 10
03 23.05 Ю 4 8000 м дымка 8/1 600 м
[Cu hum Ac lent Cs]
+31.8 +25.8 71 +47 +53 опасность
перегрева
1010.1 1008.7
06 23.05 Ю 7 10 км 9/4 600 м
[Cb cap Ac trans Cs]
+33.6 +25.2 62 +48 +50 опасность
перегрева
1007.5 1006.2
09 23.05 С 4 10 км 8/4 600 м
[Cu Sc As op Cs]
+30.5 +25.4 74 +44 +47 опасность
перегрева
1006.3 1004.9
12 23.05 З 4 10 км в посл. час дождь 8/3 600 м
[Cu Sc Ac trans Cs]
+25.9 +24.6 93 +37 +37 очень
душно
1009.1 1007.6 +34.4 0.6
15 23.05 Ю 3 10 км 9/1 600 м
[Cu Sc Ac trans Cs]
+26.9 +24.1 85 +37 +37 очень
душно
1010.6 1009.1
18 23.05 ЮВ 4 10 км 9/1 600 м
[Cu hum Ac trans Cs]
+26.8 +25.7 94 +40 +40 очень
душно
1009.2 1007.8
21 23.05 В 2 8000 м дымка 8/1 600 м
[Cu hum Ac trans Cs]
+26.2 +26.0 99 +39 +39 очень
душно
1007.8 1006.4
00 24.05 ЮВ 5 6000 м дымка 8/1 600 м
[Cu hum Ac trans Cs]
+26.6 +26.2 98 +40 +41 очень
душно
1009.8 1008.3 +26.2 0.6
03 24.05 ЮЗ 7 10 км 6/4 600 м
[Cu med, cong Ac trans Cs]
+32.4 +25.2 66 +46 +49 опасность
перегрева
1009.8 1008.4
06 24.05 Ю 6 10 км 6/3 600 м
[Cu med, cong As op Cs]
+34.0 +23.5 54 +45 +49 опасность
перегрева
1008.1 1006.8
09 24.05 З 10 10 км 6/3 600 м
[Cb cap Ac trans Cs]
+34.7 +23.0 51 +45 +45 опасность
перегрева
1005.4 1004.0
12 24.05 З 6 10 км {дождь} 9/4 600 м
[Cu Sc Ac trans Cs]
+30.7 +23.5 66 +42 +42 опасность
перегрева
1006.6 1005.2 +34.9 11
15 24.05 ЮЗ 7 10 км 8/3 600 м
[Cu med, cong Ac trans Cs]
+30.1 +23.3 67 +41 +41 опасность
перегрева
1008.3 1006.9
18 24.05 штиль 0 10 км 5/1 600 м
[Cu med, cong Cs]
+28.7 +23.2 72 +39 +39 очень
душно
1007.3 1005.9
21 24.05 З 5 10 км 5/1 600 м
[Cu hum Cs]
+29.0 +24.1 75 +40 +40 очень
душно
1006.3 1004.9
00 25.05 ЮЗ 7 10 км 5/1 600 м
[Cu hum Ac lent Cs]
+28.9 +22.9 70 +38 +39 очень
душно
1007.6 1006.2 +27.7 11
03 25.05 З 8 10 км 5/1 600 м
[Cu hum Cs]
+32.4 +24.1 62 +45 +47 опасность
перегрева
1007.7 1006.3
06 25.05 Ю 5 10 км 5/3 600 м
[Cu hum Cs]
+35.1 +23.8 52 +46 +54 опасность
перегрева
1005.8 1004.4
09 25.05 ЮЗ 10 10 км 8/4 600 м
[Cb cap Ac trans Cs]
+34.4 +24.2 55 +46 +46 опасность
перегрева
1003.3 1002.0
12 25.05 ЮЗ 6 10 км в посл. час ливневой дождь 9/3 600 м
[Cb cap Ac As Cs]
+28.8 +26.3 86 +44 +44 опасность
перегрева
1004.4 1003.0 +35.3 0.0
15 25.05 Ю 8 10 км 8/1 600 м
[Cu hum Ac lent Cs]
+30.6 +26.7 80 +48 +48 опасность
перегрева
1006.9 1005.5
18 25.05 ЮЗ 8 10 км 8/1 600 м
[Cu hum Ac lent Cs]
+30.0 +24.4 72 +42 +42 опасность
перегрева
1006.1 1004.7
21 25.05 ЮЗ 8 10 км 8/1 600 м
[Cu hum Ac lent Cs]
+28.8 +23.4 73 +39 +39 очень
душно
1005.8 1004.4
00 26.05 ЮЗ 8 10 км 8/1 600 м
[Cu hum Ac lent Cs]
+29.1 +23.6 72 +40 +40 очень
душно
1006.9 1005.5 +28.0 0.0
03 26.05 З 11 10 км 8/1 600 м
[Cu hum Ac lent Cs]
+32.4 +23.6 60 +44 +44 опасность
перегрева
1008.0 1006.6
06 26.05 З 10 10 км 6/3 600 м
[Cu med, cong Cs]
+34.7 +23.0 51 +45 +45 опасность
перегрева
1005.4 1004.1
09 26.05 З 13 10 км 9/4 600 м
[Cu Sc Ac trans Cs]
+34.9 +24.3 54 +47 +47 опасность
перегрева
1003.4 1002.0
12 26.05 ЮЗ 12 9000 м гроза, ливневой дождь 9/4 600 м
[Cb cap Ac As Cs]
+27.9 +25.6 87 +41 +41 опасность
перегрева
1005.4 1004.0 +35.4 0.0
15 26.05 ЮЗ 6 10 км {гроза} 8/3 600 м
[Cu med, cong Ac lent Cs]
+28.7 +24.2 77 +40 +40 очень
душно
1007.3 1005.9 0.0
18 26.05 ЮЗ 7 10 км {гроза} 8/1 600 м
[Cu hum Ac lent Cs]
+29.0 +24.1 75 +40 +40 очень
душно
1005.4 1004.0 0.0
21 26.05 Ю 3 10 км 6/1 600 м
[Cu hum Ac lent Cs]
+28.3 +23.8 77 +39 +39 очень
душно
1005.0 1003.6
00 27.05 ЮЗ 8 10 км 6/1 600 м
[Cu hum Ac lent Cs]
+29.4 +23.4 70 +40 +40 очень
душно
1006.9 1005.5 +27.6 0.0
03 27.05 ЮЗ 10 10 км 6/1 600 м
[Cu hum Ac trans Cs]
+32.2 +23.2 59 +43 +43 опасность
перегрева
1007.3 1006.0
06 27.05 Ю 10 10 км 8/3 600 м
[Cu Sc Ac trans Cs]
+32.5 +24.7 64 +46 +46 опасность
перегрева
1005.5 1004.1

 

Местоположение метеостанции Дон Муанг (Таиланд): широта 13.92 долгота 100.60 высота над уровнем моря 12 м.

В архиве по умолчанию представлена погода в Дон Муанг за последнюю неделю. Архивные данные за месяц целиком и за предыдущие месяцы, начиная с января 2011 года, Вы можете получить, выбрав интересующий диапазон дат из раскрывающегося списка и нажав кнопку "Ввод!".


*Определитесь, кто Вы:
робот инопланетянин человек

Внимание! Время в таблицах - всемирное. Для получения местного времени необходимо прибавить поправку, которая равна 7 ч.

Смотрите также архив погоды в соседних городах и на ближайших метеорологических станциях:

Погода в Патхумтхани (Таиланд) (20 км)
Погода в Бангкоке (Таиланд) (22 км)
Погода в Бангкоке 2 (Таиланд) (25 км)
Погода в Бангна Агромете (Таиланд) (28 км)
Погода в Аэропорту Суварнабхуми (Таиланд) (32 км)
Погода в Самутрудкан Агромете (Таиланд) (47 км)
Погода в Бангкок Пилот (Таиланд) (60 км)
Погода в Аюттхая (Таиланд) (68 км)
Погода в Накхонпатхоме (Таиланд) (69 км)
Погода в Чонбури (Таиланд) (74 км)

Пояснения к столбцам:

Ветер - указаны скорость ветра в м/с - средняя за 10 мин, порывы в срок и между сроками (в фигурных скобках) и направление, откуда дует ветер: С - северный, СВ - северо-восточный, В - восточный, ЮВ - юго-восточный, Ю - южный, ЮЗ - юго-западный, З - западный, СЗ - северо-западный.
Видимость - горизонтальная дальность видимости в метрах или километрах. При видимости от 1 до 10 км при отсутствии осадков обычно наблюдается дымка, при ухудшении видимости до 1 км и менее - туман. В сухую погоду видимость может ухудшаться дымом, пылью или мглою.
Явления - указаны атмосферные явления, наблюдавшиеся в срок или в последний час перед сроком; фигурными скобками обозначены явления, наблюдавшиеся между сроками (за 1-3 часа до срока); квадратными скобками обозначены град или гололедные отложения с указанием их диаметра в мм.
Облачность - указаны через наклонную черту общая и нижняя облачность в баллах и высота нижней границы облаков в метрах; квадратными скобками обозначены формы облаков: Ci - перистые, Cs - перисто-слоистые, Cc - перисто-кучевые, Ac - высококучевые, As - высокослоистые, Sc - слоисто-кучевые, Ns - слоисто-дождевые, Cu - кучевые, Cb - кучево-дождевые. Подробнее классификацию облаков см. в Атласе облаков (PDF).
T - Температура воздуха - температура, измеренная на высоте 2 м над землей.
Td - Температура точки росы - температура, при понижении до которой содержащийся в воздухе водяной пар достигнет насыщения.
f - Относительная влажность воздуха - влажноcть воздуха, измеренная на высоте 2 м над землей.
Te - Эффективная температура - температура, которую ощущает одетый по сезону человек в тени. Характеристика душности погоды. При расчете учитывается влияние влажности воздуха и скорости ветра на теплоощущения человека.
Tes - Эффективная температура на солнце - температура, которую ощущает человек, с поправкой на солнечный нагрев. Характеристика знойности погоды. Зависит от высоты солнца над горизонтом, облачности и скорости ветра. Ночью, в пасмурную погоду, а также при ветре 12 м/с и более поправка равна нулю.
P - Атмосферное давление - приведенное к уровню моря атмосферное давление.
Po - Атмосферное давление - измеренное на уровне метеостанции атмосферное давление.
Tmin - Минимальная температура - минимум температуры воздуха на высоте 2 м над землей.
Tmax - Максимальная температура - максимум температуры воздуха на высоте 2 м над землей.
R - Количество осадков - Количество выпавших осадков за период времени, мм. При наведении курсора мыши на число - период времени, за который выпало указанное количество осадков.
R24 - Количество осадков - Количество выпавших осадков за 24 часа, мм.
S - Снежный покров - Высота снежного покрова, см. При наведении курсора мыши на число - состояние снежного покрова и степень покрытия местности в баллах.